Tracking 17560 objects as of 12-February-2016
HD Live streaming from Space Station
objects crossing your sky now

GLOBALSTAR M086

Track GLOBALSTAR M086 now!
10-day predictions
GLOBALSTAR M086 is classified as:


NORAD ID: 38045
Int'l Code: 2011-080F
Perigee: 1,420.3 km
Apogee: 1,421.2 km
Inclination: 52.0 °
Period: 114.1 minutes
Semi major axis: 7791 km
RCS: 4.511 m2 (large)
Launch date: December 28, 2011
Source: Globalstar (GLOB)
Launch site: TYURATAM MISSILE AND SPACE COMPLEX (TTMTR)
Your satellite tracking list
Your tracking list is empty





NASA's NSSDC Master Catalog

Two Line Element Set (TLE):
1 38045U 11080F   16042.90026463 -.00000078  00000-0  14131-3 0  9992
2 38045  51.9909 313.9423 0000578  50.1589  24.2652 12.6226391219261
Source of the keplerian elements: AFSPC

N2YO: 695